AXY35X WAJJ-RPLL

Flight info

Callsign AXY35X
Flight time N/A
Altitude 36000
Route KUBIA1A KUBIA DCT MIMIK B462 BIDOR/N0481F380 B462 POXEL DCT 08N127E DCT SADOK DCT CONDE CONDE5R
Aircraft A346/H-SDE2E3FGHIJ3J4J5M1RWXY/LB1D1

Departure

Time N/A
Airport Dortheys Hiyo Eluay International Airport (WAJJ)

Arrival

Time 2026-05-07 20:11
Airport Ninoy Aquino International Airport (RPLL)
Time Latitude Longitude Altitude Speed Heading
2026-05-07 19:05 10.04526 125.82093 37866 ft 477 kts 328°
2026-05-07 19:06 10.07409 125.80419 37866 ft 477 kts 328°
2026-05-07 19:06 10.13120 125.77105 37862 ft 461 kts 328°
2026-05-07 19:06 10.15868 125.75512 37859 ft 450 kts 328°
2026-05-07 19:07 10.21289 125.72362 37865 ft 448 kts 328°
2026-05-07 19:07 10.26705 125.69213 37865 ft 448 kts 328°
2026-05-07 19:08 10.32116 125.66067 37864 ft 448 kts 328°
2026-05-07 19:08 10.37532 125.62918 37863 ft 448 kts 328°
2026-05-07 19:09 10.42030 125.60301 37866 ft 448 kts 328°
2026-05-07 19:09 10.47440 125.57152 37860 ft 448 kts 328°
2026-05-07 19:10 10.52858 125.53998 37863 ft 448 kts 328°
2026-05-07 19:10 10.58273 125.50845 37863 ft 448 kts 328°
2026-05-07 19:11 10.63696 125.47689 37864 ft 449 kts 328°
2026-05-07 19:11 10.69105 125.44534 37869 ft 449 kts 328°
2026-05-07 19:12 10.74532 125.41369 37866 ft 449 kts 328°
2026-05-07 19:12 10.79958 125.38207 37870 ft 449 kts 328°
2026-05-07 19:13 10.85346 125.35008 37864 ft 447 kts 325°
2026-05-07 19:13 10.90399 125.31305 37872 ft 445 kts 318°
2026-05-07 19:14 10.94925 125.27035 37869 ft 439 kts 311°
2026-05-07 19:14 10.98858 125.22318 37874 ft 436 kts 306°
2026-05-07 19:15 11.02576 125.17426 37873 ft 436 kts 306°
2026-05-07 19:15 11.06285 125.12536 37875 ft 436 kts 306°
2026-05-07 19:16 11.10000 125.07643 37876 ft 436 kts 306°
2026-05-07 19:16 11.13712 125.02753 37884 ft 436 kts 306°
2026-05-07 19:17 11.17428 124.97860 37883 ft 436 kts 306°
2026-05-07 19:17 11.21125 124.92991 37883 ft 436 kts 306°
2026-05-07 19:18 11.24838 124.88096 37879 ft 436 kts 306°
2026-05-07 19:18 11.28554 124.83195 37877 ft 436 kts 306°
2026-05-07 19:19 11.32266 124.78296 37879 ft 436 kts 306°
2026-05-07 19:19 11.35981 124.73393 37877 ft 436 kts 306°
2026-05-07 19:20 11.39704 124.68475 37877 ft 437 kts 306°
2026-05-07 19:20 11.43398 124.63595 37876 ft 437 kts 306°
2026-05-07 19:21 11.47115 124.58682 37875 ft 437 kts 306°
2026-05-07 19:21 11.50827 124.53772 37871 ft 437 kts 306°
2026-05-07 19:22 11.54549 124.48848 37870 ft 438 kts 306°
2026-05-07 19:22 11.58268 124.43925 37870 ft 438 kts 306°
2026-05-07 19:23 11.61988 124.38997 37867 ft 437 kts 306°
2026-05-07 19:23 11.65705 124.34072 37871 ft 437 kts 306°
2026-05-07 19:24 11.69419 124.29148 37869 ft 437 kts 306°
2026-05-07 19:24 11.73131 124.24224 37865 ft 437 kts 306°
2026-05-07 19:25 11.76842 124.19298 37870 ft 437 kts 306°
2026-05-07 19:25 11.80549 124.14377 37866 ft 437 kts 306°
2026-05-07 19:26 11.84257 124.09450 37865 ft 437 kts 306°
2026-05-07 19:26 11.87941 124.04555 37867 ft 437 kts 306°
2026-05-07 19:27 11.91653 123.99619 37866 ft 438 kts 306°
2026-05-07 19:27 11.95368 123.94676 37860 ft 438 kts 306°
2026-05-07 19:28 11.99088 123.89723 37863 ft 439 kts 306°
2026-05-07 19:28 12.02807 123.84770 37863 ft 439 kts 306°
2026-05-07 19:29 12.06529 123.79811 37865 ft 439 kts 306°
2026-05-07 19:29 12.10249 123.74853 37861 ft 439 kts 306°
2026-05-07 19:30 12.13939 123.69930 37866 ft 439 kts 306°
2026-05-07 19:30 12.17658 123.64968 37865 ft 438 kts 306°
2026-05-07 19:31 12.21362 123.60022 37863 ft 438 kts 306°
2026-05-07 19:31 12.25072 123.55068 37864 ft 438 kts 305°
2026-05-07 19:32 12.28783 123.50106 37857 ft 438 kts 305°
2026-05-07 19:32 12.32489 123.45149 37861 ft 438 kts 305°
2026-05-07 19:33 12.36202 123.40181 37861 ft 438 kts 305°
2026-05-07 19:33 12.39884 123.35252 37865 ft 438 kts 305°
2026-05-07 19:34 12.43587 123.30292 37865 ft 438 kts 305°
2026-05-07 19:34 12.47298 123.25319 37862 ft 438 kts 305°
2026-05-07 19:35 12.51002 123.20352 37866 ft 438 kts 305°
2026-05-07 19:35 12.54688 123.15408 37858 ft 438 kts 305°
2026-05-07 19:36 12.58379 123.10453 37861 ft 437 kts 305°
2026-05-07 19:36 12.62067 123.05501 37866 ft 436 kts 305°
2026-05-07 19:37 12.65753 123.00548 37861 ft 436 kts 305°
2026-05-07 19:37 12.69431 122.95603 37794 ft 437 kts 305°
2026-05-07 19:38 12.71272 122.93126 37523 ft 437 kts 305°
2026-05-07 19:38 12.73118 122.90643 37260 ft 438 kts 305°
2026-05-07 19:38 12.74965 122.88158 37008 ft 439 kts 305°
2026-05-07 19:38 12.76825 122.85655 36753 ft 440 kts 305°
2026-05-07 19:39 12.78685 122.83151 36501 ft 442 kts 305°
2026-05-07 19:39 12.80550 122.80638 36248 ft 443 kts 305°
2026-05-07 19:39 12.82418 122.78120 36027 ft 444 kts 305°
2026-05-07 19:39 12.84294 122.75592 35778 ft 446 kts 305°
2026-05-07 19:40 12.86180 122.73050 35536 ft 447 kts 305°
2026-05-07 19:40 12.88065 122.70508 35299 ft 448 kts 305°
2026-05-07 19:40 12.89932 122.67991 34991 ft 450 kts 305°
2026-05-07 19:40 12.91831 122.65428 34564 ft 451 kts 305°
2026-05-07 19:41 12.93733 122.62861 34029 ft 453 kts 305°
2026-05-07 19:41 12.95646 122.60280 33527 ft 452 kts 305°
2026-05-07 19:41 12.97537 122.57727 33143 ft 447 kts 305°
2026-05-07 19:41 12.99413 122.55192 32722 ft 444 kts 305°
2026-05-07 19:42 13.01277 122.52672 32260 ft 443 kts 305°
2026-05-07 19:42 13.03135 122.50160 31861 ft 440 kts 305°
2026-05-07 19:42 13.04985 122.47659 31472 ft 438 kts 306°
2026-05-07 19:42 13.06823 122.45174 31109 ft 435 kts 306°
2026-05-07 19:43 13.08649 122.42705 30737 ft 432 kts 306°
2026-05-07 19:43 13.10461 122.40254 30383 ft 429 kts 306°
2026-05-07 19:43 13.12266 122.37813 30012 ft 427 kts 306°
2026-05-07 19:43 13.14054 122.35393 29600 ft 424 kts 306°
2026-05-07 19:44 13.15807 122.33016 29201 ft 421 kts 306°
2026-05-07 19:44 13.17599 122.30594 28825 ft 418 kts 306°
2026-05-07 19:44 13.19325 122.28255 28472 ft 415 kts 306°
2026-05-07 19:44 13.21066 122.25897 28108 ft 412 kts 306°
2026-05-07 19:45 13.22790 122.23560 27740 ft 410 kts 306°
2026-05-07 19:45 13.24509 122.21226 27383 ft 407 kts 306°
2026-05-07 19:45 13.26213 122.18913 27031 ft 405 kts 307°
2026-05-07 19:45 13.27912 122.16608 26673 ft 403 kts 307°
2026-05-07 19:46 13.29603 122.14316 26308 ft 402 kts 307°
2026-05-07 19:46 13.31288 122.12030 25952 ft 400 kts 307°
2026-05-07 19:46 13.32963 122.09756 25594 ft 398 kts 307°
2026-05-07 19:46 13.34632 122.07490 25244 ft 396 kts 307°
2026-05-07 19:47 13.36295 122.05230 24889 ft 394 kts 307°
2026-05-07 19:47 13.37948 122.02985 24531 ft 393 kts 307°
2026-05-07 19:47 13.39595 122.00747 24164 ft 392 kts 307°
2026-05-07 19:47 13.41240 121.98512 23814 ft 391 kts 308°
2026-05-07 19:48 13.42875 121.96289 23458 ft 390 kts 308°
2026-05-07 19:48 13.44511 121.94067 23042 ft 389 kts 308°
2026-05-07 19:48 13.46139 121.91853 22670 ft 386 kts 308°
2026-05-07 19:48 13.47754 121.89655 22292 ft 384 kts 308°
2026-05-07 19:49 13.49360 121.87469 21928 ft 382 kts 308°
2026-05-07 19:49 13.50954 121.85299 21580 ft 379 kts 308°
2026-05-07 19:49 13.52543 121.83138 21229 ft 377 kts 308°
2026-05-07 19:49 13.54102 121.81014 20874 ft 375 kts 308°
2026-05-07 19:50 13.55670 121.78876 20521 ft 374 kts 308°
2026-05-07 19:50 13.57240 121.76738 20146 ft 373 kts 308°
2026-05-07 19:50 13.58805 121.74608 19799 ft 372 kts 308°
2026-05-07 19:50 13.60360 121.72484 19428 ft 371 kts 308°
2026-05-07 19:51 13.61916 121.70363 19066 ft 371 kts 308°
2026-05-07 19:51 13.63477 121.68240 18717 ft 369 kts 308°
2026-05-07 19:51 13.64999 121.66162 18630 ft 357 kts 308°
2026-05-07 19:51 13.66468 121.64156 18552 ft 345 kts 308°
2026-05-07 19:52 13.67921 121.62243 18475 ft 335 kts 311°
2026-05-07 19:52 13.69465 121.60508 18347 ft 331 kts 316°
2026-05-07 19:52 13.71147 121.58892 17975 ft 331 kts 320°
2026-05-07 19:52 13.72864 121.57323 17603 ft 329 kts 320°
2026-05-07 19:53 13.74583 121.55763 17262 ft 328 kts 320°
2026-05-07 19:53 13.76285 121.54214 16935 ft 326 kts 320°
2026-05-07 19:53 13.77428 121.53171 16712 ft 324 kts 320°
2026-05-07 19:53 13.79655 121.51139 16301 ft 322 kts 320°
2026-05-07 19:54 13.80762 121.50128 16092 ft 321 kts 320°
2026-05-07 19:54 13.82428 121.48605 15773 ft 319 kts 320°
2026-05-07 19:54 13.84083 121.47089 15453 ft 317 kts 320°
2026-05-07 19:54 13.85728 121.45582 15152 ft 316 kts 320°
2026-05-07 19:55 13.87368 121.44080 14833 ft 315 kts 320°
2026-05-07 19:55 13.88682 121.42877 14584 ft 314 kts 320°
2026-05-07 19:55 13.90312 121.41385 14258 ft 313 kts 320°
2026-05-07 19:55 13.91932 121.39900 13959 ft 312 kts 320°
2026-05-07 19:56 13.93551 121.38416 13644 ft 310 kts 320°
2026-05-07 19:56 13.95163 121.36938 13301 ft 309 kts 320°
2026-05-07 19:56 13.96765 121.35470 12984 ft 307 kts 320°
2026-05-07 19:56 13.98354 121.34012 12664 ft 305 kts 320°
2026-05-07 19:57 13.99939 121.32559 12349 ft 303 kts 320°
2026-05-07 19:57 14.01510 121.31118 12038 ft 301 kts 320°
2026-05-07 19:57 14.03071 121.29685 11721 ft 300 kts 320°
2026-05-07 19:57 14.04478 121.28099 11416 ft 301 kts 306°
2026-05-07 19:58 14.05479 121.26211 11085 ft 301 kts 294°
2026-05-07 19:58 14.06249 121.24208 10772 ft 300 kts 291°
2026-05-07 19:58 14.06981 121.22195 10465 ft 299 kts 291°
2026-05-07 19:58 14.07709 121.20189 10159 ft 298 kts 291°
2026-05-07 19:59 14.08431 121.18222 9859 ft 297 kts 291°
2026-05-07 19:59 14.09166 121.16233 9539 ft 296 kts 292°
2026-05-07 19:59 14.09903 121.14255 9220 ft 295 kts 292°
2026-05-07 19:59 14.10639 121.12280 8911 ft 293 kts 292°
2026-05-07 20:00 14.11368 121.10322 8618 ft 291 kts 292°
2026-05-07 20:00 14.12091 121.08386 8332 ft 288 kts 292°
2026-05-07 20:00 14.12811 121.06459 8038 ft 288 kts 292°
2026-05-07 20:00 14.13532 121.04530 7747 ft 287 kts 292°
2026-05-07 20:01 14.14248 121.02609 7444 ft 286 kts 292°
2026-05-07 20:01 14.14961 121.00693 7169 ft 286 kts 292°
2026-05-07 20:01 14.15677 120.98779 6873 ft 286 kts 292°
2026-05-07 20:01 14.16383 120.96884 6717 ft 278 kts 292°
2026-05-07 20:02 14.17158 120.95100 6631 ft 267 kts 307°
2026-05-07 20:02 14.18441 120.93792 6502 ft 255 kts 330°
2026-05-07 20:02 14.19944 120.92879 6335 ft 247 kts 334°
2026-05-07 20:02 14.21448 120.92034 6061 ft 245 kts 335°
2026-05-07 20:03 14.22940 120.91190 5770 ft 244 kts 334°
2026-05-07 20:03 14.24424 120.90332 5465 ft 244 kts 334°
2026-05-07 20:03 14.25898 120.89470 5191 ft 243 kts 334°
2026-05-07 20:03 14.27363 120.88608 4928 ft 242 kts 334°
2026-05-07 20:04 14.28822 120.87755 4674 ft 240 kts 334°
2026-05-07 20:04 14.30282 120.86911 4387 ft 239 kts 335°
2026-05-07 20:04 14.31725 120.86077 4174 ft 235 kts 335°
2026-05-07 20:04 14.33120 120.85269 4077 ft 225 kts 335°
2026-05-07 20:05 14.34447 120.84498 3970 ft 213 kts 335°
2026-05-07 20:05 14.35696 120.83774 3839 ft 205 kts 335°
2026-05-07 20:05 14.36942 120.83054 3762 ft 205 kts 336°
2026-05-07 20:05 14.38237 120.82496 3678 ft 197 kts 358°
2026-05-07 20:06 14.39538 120.82688 3603 ft 187 kts 32°
2026-05-07 20:06 14.40520 120.83529 3505 ft 183 kts 52°
2026-05-07 20:06 14.41255 120.84581 3288 ft 179 kts 59°
2026-05-07 20:06 14.41891 120.85673 3059 ft 175 kts 62°
2026-05-07 20:07 14.42495 120.86765 2824 ft 174 kts 62°
2026-05-07 20:07 14.43090 120.87856 2604 ft 174 kts 62°
2026-05-07 20:07 14.43685 120.88944 2402 ft 176 kts 62°
2026-05-07 20:07 14.44281 120.90034 2152 ft 171 kts 60°
2026-05-07 20:08 14.44861 120.91087 1911 ft 167 kts 60°
2026-05-07 20:08 14.45434 120.92125 1719 ft 164 kts 60°
2026-05-07 20:08 14.45988 120.93130 1493 ft 159 kts 60°
2026-05-07 20:08 14.46534 120.94121 1323 ft 158 kts 59°
2026-05-07 20:09 14.47078 120.95110 1148 ft 158 kts 60°
2026-05-07 20:09 14.47619 120.96096 931 ft 158 kts 60°
2026-05-07 20:09 14.48160 120.97086 734 ft 158 kts 60°
2026-05-07 20:10 14.49258 120.99048 334 ft 157 kts 60°
2026-05-07 20:10 14.49801 121.00032 146 ft 158 kts 60°
2026-05-07 20:10 14.50330 121.00985 72 ft 140 kts 60°
2026-05-07 20:10 14.50717 121.01683 66 ft 85 kts 60°
2026-05-07 20:11 14.50927 121.02062 84 ft 39 kts 60°
2026-05-07 20:11 14.51057 121.02241 84 ft 24 kts 40°
2026-05-07 20:11 14.51147 121.02305 83 ft 11 kts 11°
2026-05-07 20:11 14.51183 121.02250 71 ft 13 kts 252°
2026-05-07 20:12 14.51138 121.02161 67 ft 16 kts 240°
2026-05-07 20:12 14.51077 121.02053 66 ft 19 kts 240°
2026-05-07 20:12 14.51006 121.01926 69 ft 22 kts 240°
2026-05-07 20:12 14.50927 121.01783 67 ft 24 kts 240°
2026-05-07 20:13 14.50839 121.01625 69 ft 26 kts 240°
2026-05-07 20:13 14.50745 121.01458 68 ft 28 kts 240°
2026-05-07 20:13 14.50649 121.01285 70 ft 29 kts 240°
2026-05-07 20:13 14.50546 121.01099 74 ft 30 kts 240°
2026-05-07 20:14 14.50457 121.00938 74 ft 23 kts 240°
2026-05-07 20:14 14.50372 121.00786 65 ft 25 kts 240°
2026-05-07 20:14 14.50288 121.00634 67 ft 24 kts 240°
2026-05-07 20:14 14.50205 121.00486 67 ft 23 kts 240°
2026-05-07 20:15 14.50150 121.00387 70 ft 10 kts 246°
2026-05-07 20:15 14.50176 121.00327 71 ft 12 kts 324°
2026-05-07 20:15 14.50254 121.00286 68 ft 13 kts 347°
2026-05-07 20:15 14.50318 121.00272 74 ft 7 kts 318°
2026-05-07 20:16 14.50331 121.00228 73 ft 4 kts 274°
2026-05-07 20:16 14.50332 121.00209 77 ft 1 kts 274°